RH
63 68 72 78 73 50 41 43 44 42 46 53 48 47 43 40 35 37 31 30 30 23 20 19 18 16 17 19 20 23 27 30 28 25 26 25 24 24 22 21 20 20 19 17 16
48 60 67 71 78 75 49 40 42 47 47 48 51 46 47 45 40 35 34 36 36 30 20 18 21 19 18 20 21 24 28 29 24 21 23 25 25 24 23 22 21 21 20 18 16
61 56 56 70 73 80 72 50 40 44 48 49 47 48 41 46 45 40 35 38 36 37 28 21 20 22 20 19 21 23 26 26 24 22 21 22 23 23 23 22 22 21 19 16 15
60 65 63 57 74 78 78 69 54 41 47 47 48 49 43 40 45 41 36 38 38 38 36 27 19 22 22 20 19 22 23 25 25 24 24 22 20 19 19 20 19 17 15 14 13
55 62 68 67 62 79 84 78 66 53 45 47 46 48 47 40 42 43 38 37 38 38 36 38 26 18 21 22 21 20 21 23 24 23 23 22 22 22 18 19 17 16 14 12 15
48 58 67 70 69 76 83 84 75 58 53 52 48 47 45 37 39 41 38 34 37 38 37 39 37 25 19 19 21 20 18 19 23 22 20 18 15 16 13 13 11 12 12 13 15
41 54 60 70 77 74 84 93 83 70 55 55 55 50 43 37 35 39 35 39 31 36 40 38 40 36 29 22 20 21 20 18 17 15 17 16 15 13 13 13 13 12 12 14 15
32 48 60 66 78 81 76 95 91 83 65 53 55 56 42 39 37 37 39 36 39 30 35 37 40 40 37 32 24 22 23 22 20 17 16 16 14 15 14 13 13 14 15 15 16
27 38 59 62 75 81 86 80 93 90 80 59 56 57 45 37 41 41 36 38 37 37 32 33 39 41 41 38 35 28 23 24 23 21 20 19 18 16 17 16 16 16 17 17 17
38 31 53 61 71 84 86 96 96 98 94 70 59 60 49 40 41 40 39 41 40 38 37 35 35 38 41 42 41 38 31 25 22 23 24 24 22 20 20 20 19 18 18 19 20
48 28 41 65 68 83 90 96 96 98 92 71 53 54 47 45 44 39 36 42 43 40 37 37 35 33 36 39 39 41 40 35 27 26 26 24 24 21 19 20 19 19 19 21 22
47 38 28 53 62 73 87 97 92 83 94 86 68 60 60 51 49 49 38 38 42 45 41 39 36 36 37 42 44 45 45 42 43 43 41 39 34 26 22 19 18 18 18 18 20
47 52 39 41 57 67 90 88 98 92 90 85 85 61 63 60 53 51 46 41 41 45 45 42 40 41 41 42 43 43 44 43 47 46 44 41 37 37 34 31 27 22 20 19 20
41 45 43 41 49 61 74 90 89 96 97 84 82 68 58 61 57 56 55 47 44 42 44 43 43 43 43 42 42 41 40 39 40 42 42 40 38 34 34 34 34 32 28 25 24
48 44 49 40 52 57 80 79 91 97 98 72 67 70 60 57 50 54 56 52 45 44 44 40 41 41 41 41 44 41 42 40 40 39 38 37 38 30 30 31 30 29 29 27 24
48 43 43 35 44 58 75 85 94 99 96 85 63 62 59 52 58 57 60 57 55 49 45 46 46 45 43 44 44 41 41 40 40 40 41 37 39 34 30 25 26 29 29 29 30
48 47 45 41 38 61 77 89 98 97 90 84 67 58 53 52 57 56 56 55 53 51 47 46 44 43 44 44 44 43 42 46 47 47 41 38 38 32 28 29 29 29 29 30 32
53 49 45 39 37 60 96 92 97 83 91 72 65 63 63 61 62 59 57 54 51 49 50 51 52 44 40 40 42 45 46 47 53 45 42 41 36 29 27 28 29 30 29 29 31
59 55 49 44 40 54 80 97 88 87 85 71 67 72 67 60 59 59 52 49 48 47 49 51 49 46 45 46 48 49 50 49 53 51 49 40 34 30 29 29 30 30 30 30 30
66 62 53 55 53 62 85 95 86 72 83 68 68 70 63 56 57 55 54 46 50 50 53 53 56 51 50 51 51 50 50 55 55 55 53 41 39 35 33 33 32 31 30 31 32
77 72 58 69 70 70 83 85 72 74 95 75 73 72 63 59 55 54 49 48 49 51 54 55 53 53 51 48 49 51 50 50 49 47 45 42 39 34 34 34 33 33 33 35 35
86 92 73 86 84 57 75 82 64 80 92 91 82 73 67 60 60 59 52 49 48 51 52 51 54 54 52 52 52 51 51 52 50 49 46 48 42 40 41 41 37 34 35 37 36
91 86 76 97 86 66 47 72 82 79 94 88 75 73 68 66 65 59 57 54 54 53 51 54 56 61 58 55 54 53 50 50 51 53 50 52 44 42 44 41 38 38 37 37 38
91 89 84 98 92 78 65 67 77 73 89 95 78 77 73 68 63 63 61 60 58 54 53 56 55 52 52 52 51 53 54 54 55 53 53 46 48 48 50 46 44 43 40 38 38
94 91 92 93 90 72 64 82 76 79 85 93 90 76 71 70 65 60 60 62 61 57 56 54 54 54 54 53 51 51 51 51 51 50 50 46 47 47 47 49 49 48 45 41 41
92 91 93 83 91 93 78 64 92 79 89 92 84 71 66 65 54 55 56 57 56 59 55 55 56 56 56 56 56 53 50 51 49 49 48 48 45 47 47 47 48 47 46 46 47
89 93 92 85 91 97 86 65 82 79 68 84 81 83 78 66 63 61 60 58 55 54 55 56 58 58 59 56 56 53 47 48 49 48 48 49 47 49 49 48 49 50 48 45 43